Wind_Speed
28 28 30 35 35 36 41 43 48 50 44 40 35 29 30 32 32 31 32 34 31 29 28 26 23 20 18 18 20 20 18 16 15 16 17 18 19 19 20 22 23 22 21 20 20 21 20 19 20 20 18 18 17 16 15 15 16 17 17 17 16 16 17
30 32 32 34 33 34 38 39 43 48 46 43 39 32 28 31 33 35 37 36 33 31 30 29 25 21 19 18 20 22 21 19 17 17 18 19 19 20 21 21 22 21 21 21 21 21 21 20 21 22 22 21 20 18 17 16 16 17 18 17 16 15 15
30 31 30 31 31 32 35 34 38 45 45 44 43 36 29 30 34 36 38 37 35 33 31 29 27 26 23 22 21 21 21 20 19 18 18 19 20 20 20 19 21 22 22 23 24 24 24 25 25 25 26 25 23 22 20 18 17 17 17 17 16 15 15
30 27 25 26 27 29 32 33 37 44 45 41 40 38 32 31 34 35 36 38 36 33 31 30 30 30 28 28 26 23 21 20 20 21 21 21 21 20 18 18 21 23 24 25 25 24 25 27 26 25 25 26 24 22 19 18 18 18 18 18 17 17 17
33 29 26 25 24 26 29 33 39 44 45 41 38 38 35 33 33 33 34 35 34 32 33 34 34 33 31 29 27 24 22 22 22 22 22 21 21 20 20 21 23 24 24 22 20 20 22 23 23 23 24 25 25 22 19 19 20 20 19 18 18 19 20
34 29 28 29 28 29 32 35 41 45 44 41 39 38 37 36 36 33 32 34 32 32 34 35 35 35 32 29 28 26 23 22 23 23 21 20 19 19 22 25 27 26 23 20 19 19 20 20 21 23 25 26 27 27 25 24 24 24 22 20 19 19 20
34 28 27 30 31 32 34 37 42 47 44 39 39 40 39 39 38 34 32 34 34 33 34 34 33 33 31 29 30 30 27 23 23 23 22 21 20 20 22 25 28 30 26 23 23 21 18 18 20 22 24 26 29 29 27 26 27 27 26 24 22 21 20
34 30 28 34 37 35 36 38 39 45 45 40 40 42 41 41 41 37 34 34 35 35 35 32 29 28 29 32 32 29 28 25 23 24 23 22 22 21 22 24 27 30 26 23 24 24 21 19 20 20 21 23 24 25 26 27 28 29 29 27 25 23 21
34 31 31 37 41 39 39 39 39 44 46 43 42 43 42 42 42 39 36 34 34 36 35 30 28 25 27 33 33 26 23 22 22 24 25 23 23 23 23 24 24 26 23 20 20 22 21 19 17 17 17 16 16 19 23 27 29 31 31 29 27 25 23
36 34 35 40 43 42 41 39 39 41 43 44 45 44 43 43 42 39 37 35 36 37 35 31 30 27 24 28 30 25 22 22 22 23 24 25 25 24 24 25 24 24 23 21 20 21 22 20 16 16 16 14 14 16 20 25 28 31 31 30 29 27 24
39 36 38 43 46 44 40 38 39 37 37 42 47 47 46 45 42 40 38 37 36 38 37 34 33 29 25 25 27 25 24 25 24 23 24 25 26 26 25 25 25 24 24 23 22 23 24 21 17 17 18 16 15 14 15 20 24 27 28 28 28 27 25
37 37 40 46 48 45 40 38 40 39 36 38 44 47 49 49 44 40 40 39 37 36 37 36 34 31 27 25 25 25 25 25 26 25 25 24 25 26 27 26 25 25 25 24 23 24 24 21 18 19 18 16 15 14 14 15 16 20 25 27 27 27 27
36 35 38 46 50 47 41 38 40 42 38 36 40 44 47 50 47 41 40 40 37 36 37 37 36 33 29 27 27 27 26 25 26 26 25 24 23 24 26 26 26 26 26 25 24 24 24 22 21 20 18 16 16 14 12 11 10 13 18 24 28 28 28
39 38 37 41 45 46 44 40 39 42 41 38 37 38 41 47 49 45 42 41 40 38 37 39 39 35 28 25 26 27 25 25 24 24 24 24 22 22 23 25 26 27 26 26 26 25 25 24 23 20 17 15 15 14 10 8 9 10 13 19 25 28 28
41 42 41 41 43 46 48 46 42 42 44 42 39 38 39 43 47 49 47 45 43 42 40 39 39 36 31 25 22 22 21 20 21 22 23 23 23 23 23 25 26 27 27 27 26 26 27 26 26 25 21 17 15 15 13 10 9 10 12 15 21 26 27
42 43 42 43 47 49 50 49 47 46 47 45 41 41 41 41 42 46 48 46 45 44 43 42 41 39 35 31 28 24 22 20 19 20 22 23 23 24 25 26 26 27 28 28 27 27 27 27 27 27 26 23 20 18 18 16 14 12 11 13 16 21 23
45 43 41 43 46 47 45 44 44 46 49 47 42 39 40 41 40 41 43 44 44 45 44 45 44 41 38 37 36 33 30 28 24 21 21 24 25 26 26 27 27 28 28 29 29 29 28 28 28 27 26 26 24 22 22 22 20 16 13 13 14 15 16
43 43 43 42 43 42 40 39 41 45 48 48 45 40 38 40 42 42 41 40 43 45 45 46 46 43 38 35 33 30 28 29 28 25 23 24 26 27 28 29 29 29 29 30 30 30 30 30 30 29 28 26 25 25 25 25 25 21 18 17 16 14 15
38 39 41 39 37 37 38 37 39 44 46 44 44 43 40 38 40 42 42 41 41 42 43 44 45 45 42 37 33 29 26 26 27 27 25 24 25 27 28 29 30 31 31 31 31 32 32 32 32 31 30 29 27 27 27 28 28 27 24 22 19 17 17
34 35 37 35 32 33 35 34 33 40 45 44 43 44 43 42 41 42 44 44 42 43 43 41 39 39 41 41 38 35 31 28 27 27 27 26 25 25 26 27 28 30 31 32 32 32 33 33 34 34 33 32 30 29 29 29 30 31 30 27 24 22 20
32 34 36 36 35 34 34 32 29 33 41 46 46 43 42 45 44 43 46 49 47 46 46 45 42 38 37 39 40 38 34 30 27 26 26 26 26 25 25 26 27 28 30 31 32 33 33 34 34 35 35 35 34 32 32 31 31 32 32 31 29 27 26
32 33 34 37 39 39 36 33 30 29 33 41 46 44 43 46 44 40 42 50 55 54 50 49 49 46 41 39 40 40 35 31 29 28 27 27 27 26 27 27 27 28 29 30 30 32 33 34 35 36 36 36 36 35 34 34 34 34 34 33 32 30 29
32 33 34 36 40 42 41 35 30 30 33 37 43 46 47 49 49 42 35 37 46 54 54 51 49 48 45 39 36 36 34 32 32 32 32 32 32 32 32 31 31 32 32 32 32 32 33 34 34 35 36 36 37 36 36 36 36 35 36 35 34 33 32
28 32 35 37 40 42 43 38 31 31 35 36 40 46 49 50 51 50 42 33 33 39 45 48 46 46 46 44 39 36 34 32 32 32 33 34 35 36 36 36 36 36 36 36 35 35 35 35 35 35 35 35 36 37 37 37 37 37 37 37 37 36 35
22 28 33 38 40 41 41 38 33 33 36 38 41 45 48 48 49 51 50 45 40 38 41 46 47 46 47 48 48 45 41 37 34 32 32 33 35 37 37 37 38 38 38 39 38 37 37 37 37 37 36 36 36 37 38 38 38 38 39 39 39 38 38
21 23 28 33 38 40 40 37 34 34 35 37 40 43 45 46 48 49 50 49 46 43 42 45 47 47 47 48 49 49 47 45 40 36 33 34 37 39 40 40 40 39 39 40 40 39 38 39 39 38 38 38 38 38 38 38 38 39 39 39 40 40 40
25 25 25 28 31 34 35 35 34 34 34 35 37 38 40 43 45 46 47 48 47 45 45 45 45 45 46 47 48 47 45 45 44 41 38 36 38 41 42 43 43 43 42 42 41 41 40 40 41 41 40 39 39 39 40 39 39 39 40 40 40 40 40
25 28 29 29 29 29 30 31 31 32 34 35 35 36 37 38 40 41 43 45 46 46 48 48 47 46 45 45 45 45 43 42 43 43 41 40 39 41 43 44 45 45 45 44 44 43 42 42 42 42 41 40 40 39 40 40 40 41 41 41 41 41 41
22 26 29 31 31 31 30 30 29 30 32 33 33 34 34 35 37 38 40 41 43 44 45 47 47 47 45 44 43 43 42 42 42 44 45 44 43 43 43 44 44 45 45 45 45 44 44 44 44 43 42 42 40 40 40 40 41 41 42 41 41 41 42
19 22 26 28 30 32 33 32 32 31 32 32 31 32 32 32 34 36 37 38 40 41 41 42 43 44 44 44 43 42 41 41 41 42 44 45 46 46 46 46 45 46 46 46 46 46 45 45 45 45 44 43 42 41 41 40 41 41 42 42 42 42 42
19 21 24 26 28 31 32 33 34 34 34 35 34 33 33 33 33 35 36 37 39 40 40 39 39 40 41 42 43 43 43 42 43 43 43 43 44 45 46 47 47 48 48 48 48 47 47 46 46 46 46 45 44 44 43 42 42 42 42 42 42 42 43
20 22 24 25 28 30 31 32 32 33 33 34 35 35 34 34 34 35 36 37 38 38 38 39 39 39 39 40 41 42 42 43 43 44 44 43 43 43 44 45 46 47 48 48 48 48 47 47 47 47 47 47 47 46 45 45 45 44 44 43 43 43 43
22 23 25 27 28 30 31 31 32 32 32 32 33 34 34 34 35 36 37 39 39 38 37 38 39 39 39 40 40 41 41 42 42 43 43 42 43 43 43 44 45 46 47 48 48 47 47 47 47 47 47 48 48 48 48 47 47 47 46 45 45 44 44
25 26 27 29 30 30 32 32 33 33 33 33 33 33 32 33 34 35 36 38 39 39 39 39 39 39 40 41 42 42 42 41 41 41 42 42 43 44 44 44 45 46 47 47 47 47 46 46 47 47 47 47 48 48 48 48 48 48 48 47 46 46 45
29 28 29 31 32 33 33 33 33 34 36 36 35 35 34 34 34 35 36 37 38 39 39 40 40 40 40 41 41 41 42 42 42 41 41 42 44 44 44 44 44 45 46 47 47 47 47 46 47 47 47 47 47 47 47 47 48 48 48 47 47 47 47
33 32 31 32 33 33 34 34 34 35 36 37 38 37 37 37 37 37 37 38 39 39 40 40 40 40 41 41 41 41 41 42 42 42 42 42 42 43 43 43 43 44 45 47 47 48 48 47 47 47 48 48 47 47 47 47 47 47 47 47 47 47 47
35 35 34 34 35 35 35 36 36 36 37 38 39 39 38 39 39 39 39 39 39 39 40 40 40 40 41 41 42 42 42 42 42 42 43 43 43 42 42 43 43 43 44 45 47 47 47 47 48 48 48 48 47 47 47 47 47 47 47 47 47 47 47
Wind_Direction
202 201 207 208 204 203 204 199 195 196 197 199 202 206 211 207 199 205 218 222 222 219 214 213 212 212 213 214 216 214 207 202 200 198 198 202 207 208 205 204 205 206 208 208 210 215 216 214 215 217 221 227 226 226 231 232 232 229 225 222 218 215 215
205 206 209 211 208 205 206 201 197 197 198 202 204 206 212 212 206 209 217 220 221 219 215 212 213 215 214 213 216 215 209 203 204 204 203 205 209 212 212 211 212 212 213 215 216 220 223 221 217 215 220 227 227 224 223 227 230 230 228 225 222 218 215
201 207 211 213 209 207 207 202 197 197 199 204 207 205 208 212 210 211 215 218 220 220 218 217 220 224 221 216 216 215 211 208 210 213 210 209 210 213 214 215 219 219 218 220 221 220 222 224 219 216 218 222 224 222 219 220 226 228 228 226 223 221 217
197 203 207 210 208 206 207 201 195 197 198 202 207 206 205 208 211 213 214 218 222 224 224 225 225 227 226 221 214 211 212 212 213 218 219 217 215 214 212 213 221 224 222 223 225 223 225 228 225 222 221 222 227 230 224 224 229 229 228 226 221 218 215
199 202 199 198 195 194 198 198 195 196 197 201 203 203 202 202 207 211 212 216 222 223 225 227 228 229 230 227 218 211 210 210 210 216 220 221 220 216 214 217 223 228 229 229 231 232 233 233 230 229 227 225 227 230 226 225 229 231 230 229 227 224 218
199 202 200 198 189 184 190 194 194 194 196 201 201 199 197 197 202 208 210 215 220 220 220 224 228 230 231 228 220 211 209 209 210 212 216 218 218 217 216 219 224 227 228 227 230 233 233 229 229 231 229 223 219 219 220 220 220 223 226 229 232 233 229
199 200 200 197 189 186 188 190 193 193 194 200 201 199 197 197 202 208 208 212 218 219 218 221 226 230 233 226 214 208 209 211 210 209 212 214 215 216 217 220 225 227 222 220 225 231 229 224 225 228 227 224 218 217 221 222 218 217 222 226 227 229 233
197 196 193 188 185 187 188 186 190 193 194 198 202 200 199 200 205 209 209 211 216 219 220 222 224 226 228 221 210 205 207 209 211 213 213 215 216 217 219 222 228 230 225 219 221 226 226 224 225 228 227 226 222 219 221 224 220 218 222 226 226 224 228
194 194 191 187 186 189 189 186 188 191 195 200 202 200 200 202 207 210 211 212 214 218 223 227 227 226 226 219 210 206 208 207 209 212 214 217 217 217 220 223 230 234 232 226 222 224 228 227 225 230 231 229 226 224 223 222 220 219 221 224 226 225 226
193 196 195 191 189 192 192 189 188 191 196 202 203 201 200 204 209 211 213 215 214 217 224 228 228 229 227 219 211 208 207 204 205 209 213 217 217 217 220 223 228 234 236 236 234 232 234 234 231 234 236 231 225 224 223 222 221 221 222 224 226 227 229
189 190 194 193 191 192 192 191 191 192 196 202 204 204 202 204 209 210 213 217 216 217 222 226 228 229 228 226 223 216 208 206 210 215 217 218 218 219 221 223 227 231 234 237 236 234 235 236 236 238 241 236 227 224 227 226 222 223 224 225 226 227 230
192 184 186 192 193 191 188 192 197 196 196 199 201 204 204 204 207 211 213 215 217 220 223 226 228 229 230 232 231 224 217 216 219 224 224 223 221 222 223 225 228 230 232 234 235 235 235 235 236 238 242 241 231 225 230 231 228 226 225 224 225 227 229
208 197 189 191 193 191 188 194 200 200 201 201 198 199 203 205 208 213 215 214 215 220 224 226 227 227 228 231 228 223 221 221 221 225 228 226 224 223 224 227 229 230 232 233 236 238 236 236 238 238 237 239 237 231 230 234 235 231 225 224 225 228 229
209 209 204 196 195 196 196 198 201 202 205 206 200 198 201 204 208 213 215 214 216 220 224 226 227 225 225 228 223 214 212 214 216 222 225 226 226 227 226 227 228 229 229 231 235 239 238 236 236 235 232 234 238 240 240 240 239 237 232 227 226 226 228
200 203 206 201 199 202 202 203 206 206 206 207 206 203 202 204 208 211 214 215 217 221 224 226 227 224 222 221 211 199 199 206 212 216 220 222 224 226 228 229 230 229 229 229 232 237 241 240 238 238 239 240 241 243 248 252 248 241 235 229 226 225 223
199 199 200 196 196 200 202 204 208 211 210 210 210 208 207 208 209 210 213 215 217 220 223 225 226 226 224 224 224 222 223 225 221 219 222 222 221 223 227 230 232 232 231 230 229 234 241 244 244 243 244 246 246 244 243 246 248 245 238 233 230 227 224
201 198 198 193 192 197 200 202 207 211 213 214 214 211 210 211 211 212 215 217 218 220 222 223 224 227 229 231 235 239 239 235 228 223 224 224 223 223 225 228 231 234 235 234 232 232 237 243 247 247 246 246 244 240 238 239 244 250 248 239 235 231 230
203 200 200 195 192 196 201 203 206 210 213 215 216 214 213 214 215 215 217 220 220 220 221 222 224 227 230 229 229 234 236 232 228 226 225 225 224 224 225 226 229 233 235 236 235 234 236 239 244 247 247 246 243 240 237 235 237 244 246 242 241 240 237
210 207 206 202 200 201 202 203 206 209 213 216 217 217 218 217 218 218 219 222 224 223 223 224 225 229 231 227 224 227 231 232 231 230 229 227 226 226 226 228 230 232 235 236 236 236 236 238 242 245 246 246 244 242 239 236 236 239 242 242 242 239 237
220 218 217 217 217 213 208 206 205 206 210 215 218 220 222 221 221 222 222 223 225 226 225 226 228 231 232 230 228 230 233 234 233 232 233 234 233 231 230 229 230 232 234 236 237 238 238 238 240 243 246 247 246 245 243 240 238 239 242 243 242 242 247
223 225 227 229 228 226 224 222 217 210 210 213 216 219 223 223 223 226 225 224 224 226 226 229 233 235 233 232 233 233 233 233 231 231 233 236 236 234 233 233 232 232 234 236 238 239 239 239 239 241 244 246 247 247 246 244 243 243 244 246 245 246 251
220 223 228 231 232 233 234 234 233 228 222 218 216 218 223 224 225 230 231 228 228 230 230 232 236 239 239 237 237 236 234 231 229 229 231 233 235 235 236 237 238 237 237 237 238 240 241 240 240 241 243 245 246 246 247 247 246 246 246 248 248 247 249
219 220 223 228 232 234 235 236 233 234 234 228 221 221 225 225 227 233 236 230 229 231 231 232 235 237 237 237 236 234 231 228 227 229 233 236 239 241 243 244 245 244 243 242 242 243 244 243 243 242 243 245 246 247 247 247 248 248 249 250 250 249 249
219 218 221 226 231 232 234 235 229 226 231 233 228 225 226 227 228 231 233 233 232 231 230 230 234 236 235 234 234 232 232 232 232 233 237 240 242 244 245 246 247 248 248 247 246 245 246 246 245 244 244 245 246 247 248 248 248 249 250 251 251 251 251
222 219 220 224 229 231 232 232 228 222 225 230 231 230 229 229 230 231 233 237 241 241 236 235 237 240 239 237 237 238 240 243 242 239 240 242 243 244 244 243 243 245 246 247 246 246 246 246 246 245 244 244 245 246 246 247 248 248 249 250 251 252 251
225 225 224 225 228 230 231 230 227 223 223 227 230 233 233 233 234 234 234 237 240 241 241 240 240 243 243 242 241 243 245 246 245 242 241 241 241 241 241 239 238 238 240 243 244 244 244 245 246 246 245 245 245 246 247 248 248 248 249 250 250 251 252
227 229 230 232 232 233 234 233 230 226 225 226 228 233 236 237 238 238 238 239 240 240 241 242 243 244 244 243 243 243 244 245 245 244 241 237 235 236 237 237 237 236 236 239 241 242 243 244 245 246 246 246 246 247 248 248 249 249 250 251 251 252 253
228 230 233 235 237 237 237 237 234 231 229 228 228 231 235 238 239 240 241 242 243 243 244 245 245 245 244 243 242 242 242 241 241 241 237 233 233 234 235 238 239 238 238 237 238 240 242 243 244 246 246 246 245 246 247 248 248 249 250 251 252 253 254
228 231 234 237 239 241 240 239 238 236 235 233 232 233 235 237 238 238 238 240 242 244 245 246 247 247 246 245 243 242 241 239 238 238 236 234 234 234 236 238 240 241 242 241 241 241 242 243 245 246 246 246 246 245 246 246 247 247 248 249 250 252 253
231 232 235 237 239 241 242 241 240 239 238 237 236 236 237 239 239 238 237 237 239 241 242 244 245 245 245 245 245 244 242 241 240 239 238 237 237 237 238 240 241 242 243 244 244 244 243 243 244 246 247 247 247 247 246 246 246 247 247 248 248 249 250
236 235 236 237 240 243 244 244 242 240 239 238 238 238 238 239 240 240 239 238 238 239 240 241 242 243 242 243 243 243 243 243 242 241 241 241 241 241 242 242 242 243 243 244 244 245 245 245 245 246 247 248 249 248 248 248 248 248 248 248 248 248 248
242 240 238 237 239 243 246 247 247 245 243 241 240 239 239 240 241 242 242 242 241 241 241 241 241 241 241 242 242 243 243 243 243 242 242 243 243 244 244 244 244 244 244 245 245 246 247 248 248 248 248 249 250 250 250 250 250 250 250 250 250 250 250
251 249 246 243 240 239 240 243 245 246 246 245 243 241 240 238 239 241 243 244 245 245 245 245 244 244 243 243 243 243 244 244 244 244 244 244 244 244 244 244 245 246 246 247 247 248 248 249 249 250 250 250 250 251 252 252 252 252 252 252 252 252 253
256 255 254 253 250 246 243 241 241 243 244 245 244 243 242 239 237 238 240 243 245 247 248 248 248 247 247 246 244 244 244 245 245 245 244 244 244 244 244 244 245 246 248 248 249 249 249 249 249 250 251 251 251 252 252 253 254 254 254 254 254 253 253
258 255 254 254 255 254 251 249 246 244 243 243 243 243 242 241 240 239 239 240 242 244 246 248 249 249 249 249 249 248 247 247 247 246 245 245 244 244 244 244 244 245 247 248 248 248 248 248 249 250 251 252 252 252 253 253 254 254 254 254 254 254 253
261 258 253 252 252 253 254 254 253 250 247 244 243 242 241 242 242 242 241 241 241 242 243 245 246 247 249 250 250 251 251 251 251 250 250 249 249 247 246 245 244 244 245 246 247 247 247 248 249 249 250 251 251 252 253 253 253 254 254 254 254 254 254
263 260 257 254 253 252 253 254 255 254 252 249 246 244 243 242 242 242 242 243 243 244 245 245 246 246 247 248 248 249 249 250 251 251 251 251 252 251 250 249 247 245 245 246 246 247 248 248 249 249 250 251 251 252 252 252 253 253 253 254 254 254 254
Height
5826 5828 5830 5833 5837 5841 5844 5848 5852 5855 5858 5861 5862 5864 5866 5869 5873 5873 5871 5871 5874 5878 5881 5884 5886 5889 5891 5893 5895 5896 5897 5897 5899 5901 5902 5904 5905 5907 5908 5910 5911 5914 5916 5917 5918 5919 5920 5922 5922 5924 5925 5926 5927 5928 5930 5931 5931 5932 5933 5934 5935 5937 5938
5822 5824 5827 5830 5834 5838 5842 5847 5852 5855 5856 5857 5859 5861 5863 5866 5869 5869 5868 5869 5872 5875 5878 5881 5884 5887 5889 5891 5892 5894 5895 5896 5897 5899 5901 5902 5903 5905 5906 5908 5910 5913 5914 5915 5917 5918 5919 5919 5920 5921 5922 5923 5924 5926 5927 5928 5929 5931 5932 5933 5934 5936 5937
5819 5822 5825 5827 5831 5836 5840 5845 5850 5852 5853 5854 5856 5858 5860 5863 5865 5865 5866 5868 5870 5872 5876 5879 5881 5883 5886 5887 5889 5891 5893 5895 5896 5898 5899 5900 5902 5904 5906 5908 5909 5910 5912 5912 5913 5914 5916 5916 5915 5917 5918 5919 5921 5923 5924 5926 5928 5929 5930 5932 5933 5934 5935
5817 5821 5824 5826 5829 5833 5837 5842 5846 5848 5850 5852 5854 5856 5858 5860 5862 5863 5864 5865 5867 5871 5874 5877 5878 5879 5881 5881 5883 5887 5890 5892 5895 5896 5897 5899 5901 5903 5906 5907 5907 5907 5908 5909 5910 5912 5914 5914 5914 5916 5918 5919 5922 5924 5925 5926 5927 5928 5929 5929 5930 5931 5932
5815 5818 5821 5824 5827 5832 5835 5839 5842 5844 5847 5848 5850 5853 5856 5857 5859 5860 5862 5863 5865 5869 5871 5873 5874 5876 5878 5880 5881 5885 5887 5890 5892 5893 5895 5897 5899 5901 5904 5904 5904 5904 5905 5908 5910 5912 5912 5913 5914 5916 5919 5920 5922 5923 5925 5925 5925 5926 5927 5928 5929 5929 5929
5814 5817 5819 5822 5824 5828 5831 5835 5838 5841 5843 5845 5847 5850 5853 5854 5855 5856 5859 5862 5863 5865 5867 5868 5870 5872 5875 5878 5881 5883 5885 5887 5888 5890 5892 5894 5897 5899 5900 5901 5901 5902 5905 5907 5908 5908 5909 5910 5912 5914 5916 5917 5917 5918 5919 5920 5921 5923 5925 5926 5927 5928 5929
5813 5816 5819 5822 5824 5826 5828 5832 5835 5837 5840 5842 5844 5846 5848 5851 5852 5853 5856 5859 5860 5862 5864 5865 5868 5870 5872 5875 5877 5878 5881 5883 5885 5887 5889 5892 5894 5896 5897 5898 5898 5900 5904 5907 5906 5906 5907 5908 5909 5910 5911 5911 5911 5913 5915 5917 5918 5919 5920 5923 5924 5926 5927
5813 5815 5818 5820 5822 5824 5826 5829 5831 5833 5835 5838 5839 5842 5845 5847 5849 5850 5853 5856 5858 5859 5861 5863 5866 5867 5868 5871 5874 5875 5876 5879 5882 5884 5887 5889 5891 5893 5894 5896 5895 5896 5901 5906 5906 5905 5906 5906 5906 5907 5908 5908 5909 5911 5913 5914 5916 5917 5918 5920 5922 5923 5925
5812 5814 5816 5817 5818 5821 5823 5824 5826 5828 5830 5832 5834 5838 5842 5844 5845 5847 5850 5853 5855 5857 5858 5861 5863 5863 5865 5867 5871 5874 5874 5876 5879 5882 5884 5886 5889 5890 5892 5893 5893 5894 5898 5902 5903 5904 5904 5904 5904 5905 5906 5907 5909 5911 5911 5912 5913 5914 5915 5918 5919 5921 5922
5809 5810 5811 5812 5814 5818 5820 5820 5821 5824 5826 5828 5831 5835 5839 5841 5842 5845 5848 5850 5853 5855 5856 5857 5859 5861 5864 5866 5869 5871 5872 5873 5877 5879 5882 5884 5886 5888 5889 5891 5892 5893 5894 5896 5898 5900 5900 5901 5902 5904 5905 5906 5907 5908 5909 5910 5911 5911 5913 5915 5916 5918 5920
5803 5804 5807 5809 5811 5814 5817 5818 5819 5820 5822 5824 5827 5831 5835 5837 5839 5842 5844 5846 5850 5852 5853 5856 5858 5860 5863 5865 5867 5868 5869 5871 5874 5877 5880 5882 5884 5886 5887 5888 5889 5891 5892 5893 5895 5897 5898 5899 5901 5902 5902 5903 5905 5907 5908 5909 5909 5909 5911 5912 5913 5917 5918
5798 5800 5803 5805 5808 5811 5813 5814 5815 5817 5819 5821 5823 5827 5830 5833 5836 5838 5840 5843 5847 5849 5851 5854 5857 5858 5861 5863 5865 5866 5867 5869 5872 5876 5878 5880 5882 5884 5885 5886 5887 5888 5890 5891 5893 5895 5897 5899 5900 5900 5900 5902 5904 5906 5907 5908 5907 5907 5908 5909 5912 5914 5916
5797 5799 5801 5802 5805 5808 5810 5810 5811 5815 5817 5819 5821 5824 5827 5830 5832 5834 5837 5840 5844 5846 5848 5851 5854 5857 5859 5861 5862 5864 5865 5867 5870 5873 5876 5879 5880 5882 5883 5884 5885 5886 5887 5889 5891 5892 5894 5897 5899 5900 5902 5903 5904 5904 5904 5905 5905 5904 5905 5907 5909 5911 5913
5796 5798 5800 5803 5805 5807 5807 5808 5811 5814 5815 5817 5819 5821 5824 5827 5829 5831 5834 5838 5840 5843 5845 5848 5851 5855 5858 5859 5860 5860 5862 5864 5867 5871 5874 5876 5877 5879 5880 5881 5882 5883 5885 5886 5888 5889 5891 5894 5896 5898 5900 5902 5902 5901 5900 5901 5901 5901 5902 5904 5906 5908 5909
5793 5794 5797 5801 5805 5805 5805 5807 5809 5811 5812 5814 5816 5819 5821 5824 5826 5829 5832 5834 5837 5839 5841 5844 5849 5853 5857 5858 5858 5858 5860 5862 5865 5868 5871 5873 5874 5875 5877 5878 5879 5881 5882 5884 5886 5887 5888 5890 5892 5894 5895 5897 5898 5898 5898 5899 5900 5901 5902 5903 5904 5905 5906
5790 5792 5795 5797 5800 5801 5801 5804 5806 5807 5810 5812 5813 5816 5818 5820 5823 5827 5830 5832 5833 5836 5839 5841 5845 5850 5854 5856 5855 5856 5858 5861 5863 5866 5868 5870 5871 5872 5874 5875 5876 5878 5879 5881 5883 5884 5884 5886 5888 5890 5892 5893 5895 5896 5897 5898 5899 5900 5902 5903 5903 5904 5904
5787 5790 5792 5793 5796 5798 5798 5799 5801 5804 5807 5809 5811 5814 5816 5817 5820 5823 5825 5828 5830 5832 5835 5838 5842 5847 5851 5852 5853 5854 5856 5859 5861 5863 5865 5867 5868 5869 5871 5872 5873 5875 5876 5878 5880 5881 5882 5883 5884 5886 5888 5890 5892 5894 5895 5896 5897 5898 5900 5902 5902 5902 5903
5785 5787 5789 5791 5794 5795 5795 5797 5799 5801 5804 5806 5809 5812 5814 5816 5819 5821 5822 5824 5826 5829 5831 5834 5839 5843 5846 5849 5850 5851 5853 5856 5858 5861 5862 5864 5865 5866 5867 5869 5870 5872 5873 5875 5877 5878 5880 5881 5882 5883 5885 5887 5890 5892 5893 5895 5896 5896 5899 5900 5899 5900 5902
5784 5785 5787 5789 5790 5790 5792 5794 5796 5799 5802 5803 5806 5809 5811 5813 5816 5819 5820 5821 5823 5825 5828 5831 5835 5839 5842 5845 5847 5848 5850 5853 5855 5857 5859 5861 5862 5863 5864 5866 5867 5869 5870 5872 5874 5876 5877 5878 5879 5880 5881 5884 5887 5889 5891 5893 5894 5895 5896 5898 5899 5899 5900
5781 5783 5785 5786 5786 5788 5791 5792 5793 5796 5799 5801 5803 5806 5807 5810 5813 5816 5817 5818 5820 5822 5825 5827 5831 5835 5838 5841 5844 5846 5848 5850 5852 5854 5856 5857 5859 5860 5861 5863 5864 5866 5867 5869 5870 5873 5875 5876 5877 5878 5879 5881 5883 5885 5887 5889 5890 5891 5892 5894 5897 5897 5896
5779 5781 5782 5782 5784 5787 5789 5789 5790 5794 5796 5798 5800 5802 5805 5808 5811 5813 5813 5815 5817 5820 5822 5824 5826 5829 5834 5837 5840 5843 5845 5847 5849 5851 5853 5854 5855 5857 5858 5860 5861 5863 5865 5866 5867 5869 5871 5873 5874 5875 5876 5877 5879 5881 5883 5885 5887 5888 5889 5890 5893 5894 5894
5776 5778 5779 5781 5783 5785 5786 5788 5791 5793 5794 5796 5798 5800 5803 5806 5808 5809 5810 5811 5814 5817 5819 5820 5822 5825 5829 5832 5834 5839 5842 5844 5846 5848 5849 5851 5852 5853 5855 5856 5858 5860 5862 5864 5865 5866 5867 5868 5870 5871 5873 5874 5876 5878 5880 5881 5883 5884 5885 5887 5889 5891 5893
5774 5776 5777 5778 5780 5782 5785 5788 5791 5791 5791 5793 5797 5799 5800 5803 5805 5808 5808 5808 5810 5812 5813 5816 5818 5821 5824 5826 5829 5834 5838 5840 5843 5844 5845 5847 5848 5849 5851 5852 5853 5855 5857 5860 5862 5863 5863 5864 5866 5868 5869 5870 5872 5873 5875 5877 5879 5880 5882 5883 5885 5887 5889
5771 5773 5774 5775 5777 5780 5783 5786 5789 5789 5788 5790 5793 5794 5795 5799 5802 5804 5805 5805 5804 5805 5806 5809 5813 5815 5818 5821 5824 5828 5832 5835 5839 5841 5842 5843 5844 5845 5847 5848 5848 5850 5851 5854 5857 5859 5859 5860 5862 5864 5866 5867 5868 5869 5871 5873 5875 5876 5878 5879 5880 5882 5884
5769 5770 5771 5772 5773 5776 5779 5782 5784 5785 5785 5787 5789 5789 5790 5795 5797 5798 5800 5801 5801 5801 5802 5804 5808 5811 5814 5818 5821 5824 5827 5830 5833 5836 5837 5837 5839 5841 5842 5843 5844 5845 5846 5848 5851 5853 5854 5855 5857 5859 5861 5863 5864 5865 5867 5869 5871 5872 5874 5875 5876 5878 5879
5767 5768 5769 5770 5770 5772 5775 5777 5780 5782 5783 5785 5785 5784 5786 5790 5791 5793 5795 5796 5797 5798 5799 5801 5804 5807 5810 5814 5817 5819 5821 5824 5827 5830 5831 5832 5833 5834 5835 5837 5839 5840 5841 5843 5845 5847 5848 5849 5851 5853 5856 5858 5860 5861 5863 5865 5867 5868 5869 5871 5872 5874 5875
5764 5765 5766 5767 5768 5769 5772 5774 5776 5779 5781 5781 5781 5782 5783 5784 5786 5788 5790 5791 5793 5794 5795 5797 5799 5802 5805 5808 5811 5814 5816 5818 5820 5822 5824 5825 5826 5827 5828 5830 5832 5834 5836 5838 5839 5840 5842 5844 5845 5848 5850 5853 5855 5856 5858 5860 5862 5863 5864 5866 5868 5869 5871
5761 5762 5763 5764 5765 5766 5769 5771 5773 5775 5776 5777 5778 5779 5779 5780 5781 5783 5784 5786 5787 5789 5790 5792 5794 5797 5800 5803 5806 5808 5810 5812 5813 5814 5816 5818 5820 5821 5822 5823 5825 5828 5830 5832 5834 5835 5836 5838 5840 5842 5844 5846 5849 5851 5853 5855 5856 5858 5859 5861 5863 5864 5866
5758 5759 5759 5760 5761 5763 5764 5767 5769 5771 5772 5773 5775 5777 5776 5776 5777 5778 5780 5781 5782 5784 5785 5787 5789 5791 5794 5796 5799 5801 5802 5804 5805 5807 5810 5812 5814 5816 5817 5818 5819 5822 5824 5826 5828 5830 5831 5832 5834 5835 5837 5840 5843 5845 5847 5849 5851 5852 5854 5856 5857 5859 5860
5757 5757 5757 5757 5758 5758 5760 5761 5764 5766 5767 5769 5771 5773 5774 5774 5774 5774 5776 5778 5779 5780 5781 5782 5783 5785 5787 5789 5791 5793 5795 5797 5799 5802 5804 5806 5808 5809 5811 5812 5814 5816 5818 5819 5821 5823 5825 5826 5828 5829 5831 5833 5836 5839 5841 5843 5845 5847 5848 5850 5852 5853 5855
5754 5754 5754 5755 5755 5755 5755 5757 5758 5760 5762 5764 5766 5768 5769 5770 5770 5770 5771 5773 5774 5775 5776 5777 5778 5779 5781 5783 5784 5786 5789 5791 5793 5796 5798 5800 5802 5804 5805 5807 5808 5810 5811 5812 5814 5816 5818 5820 5822 5824 5826 5827 5830 5832 5834 5836 5838 5840 5842 5844 5846 5847 5849
5750 5750 5751 5751 5751 5752 5752 5753 5754 5756 5757 5759 5762 5763 5765 5766 5766 5766 5767 5768 5769 5770 5771 5772 5773 5774 5776 5777 5778 5780 5782 5784 5786 5789 5792 5795 5797 5798 5799 5800 5801 5802 5804 5806 5808 5810 5813 5815 5816 5818 5819 5821 5823 5825 5827 5829 5831 5833 5836 5838 5839 5841 5843
5745 5746 5746 5746 5747 5748 5748 5749 5750 5751 5752 5754 5756 5758 5760 5761 5762 5762 5762 5763 5763 5764 5765 5766 5768 5769 5770 5771 5772 5774 5775 5778 5781 5783 5786 5788 5789 5790 5791 5793 5794 5796 5797 5800 5802 5805 5807 5808 5809 5810 5812 5814 5816 5818 5820 5822 5824 5826 5829 5831 5833 5834 5836
5741 5741 5741 5741 5741 5743 5744 5745 5746 5746 5747 5749 5751 5752 5754 5755 5756 5757 5758 5758 5759 5759 5760 5761 5763 5764 5764 5765 5767 5768 5770 5773 5775 5777 5779 5780 5781 5783 5785 5787 5788 5790 5792 5794 5796 5798 5800 5801 5802 5803 5805 5807 5809 5811 5813 5815 5817 5819 5821 5823 5826 5828 5829
5735 5736 5736 5736 5736 5737 5738 5739 5741 5742 5743 5744 5745 5746 5747 5749 5750 5752 5753 5754 5755 5755 5755 5756 5757 5758 5759 5760 5762 5763 5765 5766 5768 5770 5771 5772 5774 5776 5779 5781 5783 5785 5786 5787 5789 5791 5792 5794 5795 5797 5799 5800 5802 5804 5806 5808 5810 5812 5814 5816 5818 5820 5822
5730 5730 5731 5731 5731 5731 5732 5733 5734 5736 5738 5738 5739 5741 5742 5743 5744 5745 5746 5748 5749 5750 5751 5752 5752 5753 5754 5755 5756 5757 5759 5760 5761 5763 5764 5765 5767 5769 5772 5774 5776 5778 5779 5780 5781 5783 5785 5787 5789 5791 5792 5794 5796 5798 5799 5801 5803 5805 5806 5808 5809 5811 5813
5724 5725 5726 5726 5726 5726 5727 5728 5728 5730 5731 5732 5733 5735 5736 5737 5738 5739 5740 5742 5743 5744 5745 5746 5747 5748 5749 5750 5751 5752 5753 5755 5756 5757 5758 5759 5760 5762 5764 5766 5768 5771 5772 5772 5774 5776 5778 5780 5782 5783 5785 5787 5789 5791 5792 5794 5796 5797 5799 5800 5801 5803 5805